This is the latest recevied weather packets stored in our database for station/object KO4LFZ. If no packets are shown the sender has not sent any weather packets the latest 10 day(s).
| Time | Temp. | Humidity | Pressure | Rain* | Wind** | Luminosity | Snow |
|---|---|---|---|---|---|---|---|
| 1777378058 | 17.78° C | 98% | 1014.4 hPa | 0 mm | - | 58 W/m² | - |
| 1777377753 | 17.78° C | 98% | 1014.6 hPa | 0 mm | - | 53 W/m² | - |
| 1777377447 | 17.78° C | 98% | 1014.5 hPa | 0 mm | - | 47 W/m² | - |
| 1777377143 | 17.78° C | 98% | 1014.3 hPa | 0 mm | - | 42 W/m² | - |
| 1777376840 | 17.22° C | 98% | 1014.6 hPa | 0 mm | - | 30 W/m² | - |
| 1777376537 | 17.22° C | 98% | 1014.7 hPa | 0 mm | - | 24 W/m² | - |
| 1777376234 | 17.22° C | 99% | 1014.5 hPa | 0 mm | - | 19 W/m² | - |
| 1777375928 | 17.22° C | 98% | 1014.5 hPa | 0 mm | - | 12 W/m² | - |
| 1777375623 | 17.22° C | 98% | 1014.3 hPa | 0 mm | - | 8 W/m² | - |
| 1777375318 | 17.22° C | 98% | 1014.1 hPa | 0 mm | - | 6 W/m² | - |
| 1777375015 | 17.22° C | 98% | 1013.4 hPa | 0 mm | - | 1 W/m² | - |
| 1777374710 | 17.22° C | 98% | 1013.4 hPa | 0 mm | - | 1 W/m² | - |
| 1777374406 | 17.22° C | 97% | 1013.5 hPa | 0 mm | - | 0 W/m² | - |
| 1777374105 | 17.22° C | 97% | 1013.5 hPa | 0 mm | - | 0 W/m² | - |
| 1777373800 | 17.78° C | 97% | 1013.2 hPa | 0 mm | - | 0 W/m² | - |
| 1777373498 | 17.78° C | 97% | 1013.1 hPa | 0 mm | - | 0 W/m² | - |
| 1777373192 | 17.78° C | 97% | 1013.4 hPa | 0 mm | - | 0 W/m² | - |
| 1777372888 | 17.78° C | 97% | 1013.1 hPa | 0 mm | - | 0 W/m² | - |
| 1777372583 | 17.78° C | 96% | 1013.1 hPa | 0 mm | - | 0 W/m² | - |
| 1777372283 | 17.78° C | 96% | 1013 hPa | 0 mm | - | 0 W/m² | - |
| 1777371981 | 18.33° C | 96% | 1013.3 hPa | 0 mm | - | 0 W/m² | - |
| 1777371678 | 18.33° C | 96% | 1013.3 hPa | 0 mm | - | 0 W/m² | - |
| 1777371374 | 18.33° C | 96% | 1013.1 hPa | 0 mm | - | 0 W/m² | - |
| 1777371071 | 18.33° C | 96% | 1012.9 hPa | 0 mm | - | 0 W/m² | - |
| 1777370766 | 18.33° C | 95% | 1012.8 hPa | 0 mm | - | 0 W/m² | - |
* Rain latest hour (hover to see other rain measurements)
** Current wind speed in m/s (hover to see current wind gust speed)